DB0WV-6 Weather Reports


Display with metric or nautical units.
time (UTC)temp
F
wind
direction
speed
MPH
gust
MPH
rain 1hr
in
rain 24hr
in
rain mn
in
humidity
%
barometer
mb
20260507152013 58 315 2.0 5.0 0.00 0.43 0.39 62 1011.9
20260507151015 57 298 2.0 5.0 0.00 0.46 0.39 62 1011.9
20260507150015 58 276 4.0 9.0 0.00 0.62 0.39 63 1012.0
20260507145013 58 254 3.0 7.0 0.00 1.03 0.39 63 1012.0
20260507144014 57 274 3.0 8.0 0.00 1.60 0.39 64 1012.0
20260507143015 57 263 3.0 6.0 0.00 2.09 0.39 66 1012.0
20260507142014 56 299 4.0 9.0 0.00 2.29 0.39 67 1011.9
20260507141014 56 295 5.0 10.0 0.00 2.45 0.39 71 1012.0
20260507140013 54 307 5.0 8.0 0.00 2.65 0.39 77 1011.9
20260507135013 55 298 5.0 9.0 0.00 2.84 0.39 75 1012.0
20260507134013 54 290 5.0 10.0 0.00 2.85 0.39 77 1012.0
20260507133015 55 298 5.0 10.0 0.00 2.85 0.39 73 1012.1
20260507132014 60 305 3.0 9.0 0.00 2.85 0.39 63 1012.4
20260507131015 62 298 2.0 7.0 0.00 2.85 0.39 60 1012.4
20260507130015 62 232 1.0 7.0 0.00 2.85 0.39 60 1012.4
20260507125514 61 219 4.0 7.0 0.00 2.85 0.39 58 1012.4
20260507124514 60 230 5.0 10.0 0.00 2.85 0.39 62 1012.3
20260507123514 59 211 5.0 11.0 0.00 2.85 0.39 63 1012.2
20260507122514 56 240 4.0 9.0 0.00 2.85 0.39 72 1012.1
20260507121515 56 259 4.0 11.0 0.00 2.85 0.39 70 1012.0
20260507120535 57 250 5.0 10.0 0.00 2.85 0.39 67 1012.2
20260507115514 57 218 6.0 9.0 0.00 2.85 0.39 68 1012.2
20260507114535 56 241 6.0 10.0 0.00 2.85 0.39 70 1012.2
20260507113535 57 232 5.0 11.0 0.00 2.85 0.39 69 1012.4
20260507112515 56 219 6.0 9.0 0.00 2.85 0.39 71 1012.4
20260507111535 56 205 7.0 14.0 0.00 2.85 0.39 70 1012.5
20260507110515 54 231 5.0 10.0 0.00 2.85 0.39 77 1012.4
20260507105515 54 224 5.0 9.0 0.00 2.85 0.39 79 1012.4
20260507104515 53 227 6.0 9.0 0.00 2.85 0.39 78 1012.4
20260507103515 53 229 5.0 9.0 0.00 2.85 0.39 79 1012.5
20260507102515 53 227 4.0 8.0 0.01 2.85 0.39 78 1012.4
20260507101515 53 223 4.0 7.0 0.01 2.85 0.39 80 1012.4
20260507100515 52 226 5.0 8.0 0.01 2.85 0.39 80 1012.4
20260507095515 53 230 5.0 10.0 0.01 2.85 0.39 77 1012.4
20260507094515 53 223 7.0 11.0 0.01 2.85 0.39 76 1012.5
20260507093515 53 221 5.0 9.0 0.01 2.85 0.39 77 1012.4
20260507092515 51 211 5.0 7.0 0.00 2.84 0.37 80 1012.2
20260507091515 50 214 4.0 7.0 0.00 2.84 0.37 82 1012.1
20260507090535 50 222 5.0 9.0 0.00 2.84 0.37 82 1012.1
20260507085515 50 222 6.0 10.0 0.00 2.84 0.37 82 1012.0
20260507084515 49 216 6.0 10.0 0.00 2.84 0.37 83 1011.9
20260507083535 48 222 4.0 8.0 0.00 2.84 0.37 84 1011.8
20260507082515 48 226 2.0 5.0 0.00 2.84 0.37 87 1011.7
20260507081515 47 218 4.0 9.0 0.00 2.84 0.37 88 1011.7
20260507080515 47 233 5.0 10.0 0.00 2.84 0.37 89 1011.7
20260507075535 47 226 5.0 10.0 0.00 2.84 0.37 92 1011.6
20260507074515 46 216 5.0 10.0 0.00 2.84 0.37 93 1011.5
20260507073515 46 224 5.0 9.0 0.00 2.84 0.37 95 1011.5
20260507072515 46 226 5.0 9.0 0.00 2.84 0.37 95 1011.3
20260507071515 46 234 7.0 12.0 0.00 2.84 0.37 94 1011.2
20260507070515 45 221 6.0 12.0 0.02 2.84 0.37 92 1011.1
20260507065515 45 224 5.0 9.0 0.04 2.84 0.37 91 1011.0
20260507064515 45 222 6.0 10.0 0.06 2.84 0.37 90 1010.9
20260507063515 45 221 7.0 14.0 0.09 2.84 0.37 89 1010.9
20260507062515 45 226 6.0 9.0 0.10 2.84 0.37 89 1010.9
20260507061516 45 229 7.0 12.0 0.14 2.84 0.37 87 1010.7
20260507060515 45 217 6.0 14.0 0.18 2.81 0.34 86 1010.7
20260507055535 44 224 8.0 14.0 0.26 2.79 0.32 86 1010.6
20260507054515 44 229 5.0 12.0 0.29 2.78 0.31 87 1010.5
20260507053515 44 216 8.0 13.0 0.26 2.75 0.28 88 1010.3
20260507052535 44 230 7.0 12.0 0.25 2.73 0.26 87 1010.2
20260507051515 44 223 7.0 11.0 0.21 2.70 0.23 89 1010.1
20260507050515 44 223 7.0 12.0 0.15 2.62 0.15 89 1010.0
20260507045535 44 223 7.0 12.0 0.06 2.53 0.06 94 1009.9
20260507044516 44 219 8.0 13.0 0.01 2.48 0.01 95 1009.8
20260507043515 44 213 8.0 13.0 0.01 2.48 0.01 95 1009.7
20260507042515 44 212 7.0 13.0 0.01 2.48 0.01 95 1009.6
20260507041515 44 212 8.0 13.0 0.01 2.48 0.01 95 1009.4
20260507040516 44 216 8.0 13.0 0.00 2.46 0.00 95 1009.3
20260507035515 44 217 8.0 12.0 0.00 2.46 0.00 95 1009.2
20260507034515 44 219 8.0 15.0 0.00 2.46 0.00 95 1009.3
20260507033515 44 218 9.0 14.0 0.00 2.46 0.00 95 1009.2
20260507032535 44 206 10.0 14.0 0.00 2.46 0.00 95 1009.2
20260507031515 44 212 9.0 16.0 0.00 2.46 0.00 95 1009.1
20260507030516 44 216 9.0 16.0 0.00 2.46 0.00 95 1009.1
20260507025515 44 212 8.0 14.0 0.00 2.46 0.00 94 1009.0
20260507024535 44 214 9.0 18.0 0.00 2.46 0.00 94 1009.1
20260507023535 44 223 7.0 13.0 0.00 2.46 0.00 94 1009.1
20260507022515 44 222 8.0 15.0 0.00 2.46 0.00 94 1009.0
20260507021515 44 216 8.0 14.0 0.00 2.46 0.00 95 1009.0
20260507020515 44 216 8.0 12.0 0.00 2.46 0.00 95 1009.0
20260507015515 44 222 7.0 13.0 0.00 2.46 0.00 95 1009.0
20260507014515 44 212 8.0 17.0 0.00 2.46 0.00 94 1009.0
20260507013515 45 213 7.0 10.0 0.00 2.46 0.00 94 1008.9
20260507012515 45 207 7.0 10.0 0.00 2.46 0.00 94 1009.0
20260507011515 45 213 7.0 12.0 0.00 2.46 0.00 94 1008.9
20260507010516 45 213 8.0 13.0 0.00 2.46 0.00 95 1008.8
20260507005534 45 212 7.0 16.0 0.00 2.46 0.00 95 1008.9
20260507004513 45 215 7.0 12.0 0.00 2.46 0.00 95 1008.8
20260507003513 45 213 7.0 15.0 0.00 2.46 0.00 95 1008.7
20260507002515 45 212 7.0 13.0 0.00 2.46 0.00 95 1008.6
20260507001513 45 211 8.0 13.0 0.00 2.46 0.00 95 1008.5
20260507000513 45 206 8.0 12.0 0.00 2.46 0.00 95 1008.6
20260506235513 45 206 7.0 12.0 0.00 2.46 0.00 95 1008.6
20260506234514 45 202 8.0 14.0 0.00 2.46 0.00 95 1008.6
20260506233514 45 208 6.0 9.0 0.00 2.46 0.00 95 1008.6
20260506232514 45 221 6.0 10.0 0.00 2.46 0.00 95 1008.4
20260506231513 45 217 7.0 12.0 0.00 2.46 0.00 95 1008.5
20260506230533 45 219 6.0 9.0 0.00 2.46 0.00 95 1008.5
20260506225534 45 217 6.0 12.0 0.00 2.46 0.00 95 1008.6
20260506224513 45 209 6.0 12.0 0.00 2.46 0.00 95 1008.6
20260506223513 45 204 5.0 11.0 0.00 2.46 0.00 95 1008.6
20260506222513 45 211 6.0 9.0 0.00 2.46 0.00 95 1008.4
20260506221533 45 215 7.0 12.0 0.00 2.46 0.00 95 1008.2
20260506220513 45 214 7.0 12.0 0.00 2.46 0.00 94 1008.2
20260506215533 45 214 8.0 12.0 0.00 2.46 2.46 94 1008.1
20260506214514 45 228 6.0 13.0 0.00 2.46 2.46 94 1008.1
20260506213514 46 222 6.0 13.0 0.00 2.46 2.46 94 1008.2
20260506212514 46 216 7.0 13.0 0.00 2.46 2.46 94 1008.1
20260506211513 46 223 7.0 14.0 0.00 2.46 2.46 94 1008.2
20260506210513 46 218 8.0 13.0 0.00 2.46 2.46 94 1008.2
20260506205514 46 214 7.0 12.0 0.00 2.46 2.46 94 1008.1
20260506204514 46 213 7.0 11.0 0.01 2.46 2.46 95 1008.1
20260506203514 46 212 7.0 11.0 0.01 2.46 2.46 95 1008.0
20260506202513 46 215 6.0 12.0 0.01 2.46 2.46 94 1008.0
20260506201513 46 221 7.0 14.0 0.01 2.46 2.46 94 1008.0
20260506200514 46 226 6.0 11.0 0.01 2.46 2.46 94 1007.9
20260506195513 46 223 7.0 11.0 0.01 2.46 2.46 93 1007.8
20260506194513 46 221 7.0 12.0 0.00 2.45 2.45 93 1007.8
20260506193514 46 219 7.0 12.0 0.00 2.45 2.45 93 1007.6
20260506192534 46 225 8.0 12.0 0.00 2.45 2.45 93 1007.5
20260506191515 46 228 7.0 14.0 0.00 2.45 2.45 93 1007.4
20260506190514 46 223 7.0 13.0 0.00 2.45 2.45 92 1007.3
20260506185513 46 222 8.0 14.0 0.00 2.45 2.45 92 1007.1
20260506184513 47 225 7.0 16.0 0.00 2.45 2.45 92 1007.0
20260506183514 47 227 8.0 15.0 0.00 2.45 2.45 92 1006.8
20260506182514 47 222 8.0 13.0 0.00 2.45 2.45 92 1006.8
20260506181534 47 221 7.0 15.0 0.00 2.45 2.45 92 1006.9
20260506180514 47 217 7.0 14.0 0.00 2.45 2.45 92 1006.8
20260506175535 47 216 8.0 15.0 0.00 2.45 2.45 92 1006.7
20260506174513 47 218 7.0 15.0 0.00 2.45 2.45 91 1006.6
20260506173513 47 223 7.0 13.0 0.00 2.45 2.45 92 1006.6
20260506172513 47 210 7.0 12.0 0.00 2.45 2.45 90 1006.5
20260506171513 47 209 7.0 12.0 0.00 2.45 2.45 90 1006.2
20260506170513 47 223 8.0 13.0 0.00 2.45 2.45 90 1006.1
20260506165513 47 229 7.0 13.0 0.00 2.45 2.45 89 1006.1
20260506164513 47 218 10.0 21.0 0.00 2.45 2.45 89 1005.9
20260506163513 47 229 9.0 16.0 0.00 2.45 2.45 90 1005.9
20260506162513 47 226 10.0 18.0 0.01 2.45 2.45 92 1005.7
20260506161513 46 221 11.0 25.0 0.04 2.45 2.45 93 1005.7
20260506160513 46 222 12.0 19.0 0.15 2.45 2.45 91 1005.6
20260506155514 47 218 11.0 19.0 0.39 2.45 2.45 90 1005.6
20260506154514 47 216 11.0 18.0 0.85 2.45 2.45 87 1005.5
20260506153515 47 221 10.0 20.0 1.45 2.45 2.45 86 1005.5